Regional Weather Roundup
Issued by NWS Boston, MA

Home | Current Version | Previous Version | Text Only | Print | Product List | Glossary On
Versions: 1 2 3 4 5 6 7 8 9 10 11 12 13 14 15 16 17 18 19 20 21 22 23 24 25 26 27 28 29 30 31 32 33 34 35 36 37 38 39 40 41 42 43 44 45 46 47 48 49 50
000
ASUS41 KBOX 281710
RWRBOX

REGIONAL WEATHER ROUNDUP
NATIONAL WEATHER SERVICE TAUNTON MA
1200 PM EST SUN DEC 28 2014

NOTE:  "FAIR" INDICATES FEW OR NO CLOUDS BELOW 12,000 FEET WITH NO
SIGNIFICANT WEATHER AND/OR OBSTRUCTIONS TO VISIBILITY.  THE FOLLOWING
OBSERVATION LOCATIONS DO NOT REPORT PRESENT WEATHER...PROVINCETOWN...
SMITHFIELD...BLOCK ISLAND...KEENE...AND OXFORD.

MAZALL-281800-
EASTERN MASSACHUSETTS

CITY           SKY/WX    TMP DP  RH WIND       PRES   REMARKS
BOSTON         CLOUDY    49  42  77 W13G20    29.77F
BEVERLY        CLOUDY    47  41  80 W10       29.75F
LAWRENCE       CLOUDY    47  42  83 SW9       29.76F
BEDFORD        CLOUDY    49  41  74 W9        29.76F
BLUE HILL        N/A     46  42  86 W10       29.75F
NORWOOD        CLOUDY    50  42  74 W9        29.77F
MARSHFIELD     CLOUDY    48  45  87 SW9       29.78F
PLYMOUTH       CLOUDY    47  44  90 SW10      29.78F
TAUNTON        CLOUDY    49  44  83 SW7       29.78F
NEW BEDFORD    CLOUDY    48  45  89 SW8       29.79F
$$

MAZALL-281800-
CAPE COD AND THE ISLANDS

CITY           SKY/WX    TMP DP  RH WIND       PRES   REMARKS
FALMOUTH       CLOUDY    46  43  87 W18G29    29.81R
HYANNIS        LGT RAIN  49  44  83 SW12      29.80S
CHATHAM        CLOUDY    48  45  89 SW9G18    29.79F
PROVINCETOWN   CLOUDY    46  45  93 SW12      29.79S
NANTUCKET      CLOUDY    50  46  86 SW14      29.81F
MARTHAS VNYRD  CLOUDY    50  44  80 W12G22    29.81F
$$

MAZALL-281800-
CENTRAL AND WESTERN MASSACHUSETTS

CITY           SKY/WX    TMP DP  RH WIND       PRES   REMARKS
WORCESTER      PTSUNNY   45  41  86 W16       29.76F
FITCHBURG      PTSUNNY   50  41  71 W13       29.78F
ORANGE         CLOUDY    45  42  89 SW7       29.79F
SPRINGFIELD    CLOUDY    45  41  87 W3        29.81F
WESTFIELD      CLOUDY    46  42  86 NW6       29.82S
NORTH ADAMS    CLOUDY    42  35  76 W13G22    29.83F
PITTSFIELD     CLOUDY    40  37  89 NW18G25   29.81F WCI  31
$$

RIZALL-281800-
RHODE ISLAND

CITY           SKY/WX    TMP DP  RH WIND       PRES   REMARKS
PROVIDENCE     CLOUDY    49  42  77 W8        29.80F
NEWPORT        CLOUDY    46  42  86 VRB3      29.81F
BLOCK ISLAND   CLOUDY    48  43  81 W15       29.82F
SMITHFIELD     CLOUDY    48  39  71 W6        29.78F
WESTERLY       CLOUDY    46  43  89 W8        29.82F
$$

CTZALL-281800-
CONNECTICUT

CITY           SKY/WX    TMP DP  RH WIND       PRES   REMARKS
BRADLEY INTL   CLOUDY    49  42  77 S6        29.81F
HARTFORD       CLOUDY    47  43  86 S5        29.83F
BRIDGEPORT     CLOUDY    47  43  86 SW13      29.86F
DANBURY        CLOUDY    47  40  76 W8        29.86F
GROTON         CLOUDY    45  43  93 W12       29.82F
NEW HAVEN      CLOUDY    49  43  80 SW9       29.85F
CHESTER        PTSUNNY   45  43  93 W6        29.83F
MERIDEN        CLOUDY    46  43  89 CALM      29.85S FOG
WILLIMANTIC    CLOUDY    48  41  76 VRB7      29.82F
OXFORD         PTSUNNY   46  39  76 W7        29.84F
$$

MEZ002-015-021-024-NHZ003-005-008-011-012-014-VTZ005-008-281800-
NORTHERN NEW ENGLAND

CITY           SKY/WX    TMP DP  RH WIND       PRES   REMARKS
PORTLAND ME    CLOUDY    47  44  90 S6        29.68F
BANGOR ME      CLOUDY    44  42  93 SW5       29.62F
CONCORD NH     PTSUNNY   48  42  80 SW8       29.72F
MANCHESTER NH  CLOUDY    47  44  90 S5        29.72F
NASHUA NH      CLOUDY    51  44  77 CALM      29.75F
PORTSMOUTH NH  CLOUDY    45  43  91 SW5       29.71F
JAFFREY NH     PTSUNNY   45  41  86 SW10G17   29.75F
KEENE NH       CLOUDY    45  41  87 SW8       29.77F
BURLINGTON VT  CLOUDY    45  29  53 W13G22    29.79S
MT. WASHINGTON SLEET SH  21  21 100 NW46G61     N/A  VSB 0   WCI   0
$$

NYZ052-076-281800-
EASTERN NEW YORK

CITY           SKY/WX    TMP DP  RH WIND       PRES   REMARKS
ALBANY         PTSUNNY   44  34  67 W13G18    29.87F
NEW YORK CITY  CLOUDY    49  41  74 SW9       29.89F
$$

ANZALL-281800-
MARINE OBSERVATIONS

STATION/POSITION TIME  TEMP    WIND        PRES    VSBY  WAVE
                       AIR SEA DIR/SP/G                  HT/PER
                 (UTC) (F)     (DEG/KT/KT) (MB)    (MI)  (FT/S)
BOSTON BUOY      1650   45 45  240/ 10/ 12 1008.2F         2/13
BUZZARDS BAY     1600          240/ 16/ 17 1010.4F
NANTUCKET SOUND  1650   47 45  230/ 14/ 17 1008.7F         1/ 3
MASS BAY-STELLWA 1604   45 44  240/ 10/ 12   N/A    1 7/8  2/ 4
ISLE OF SHOALS   1700   45     240/ 18/ 19 1005.6F
S OF BLOCK IS    1608      51                N/A           6/ 6
$$

......................KEY.........................
  SKY/WX - SKY CONDITION/PRESENT WEATHER
  TMP    - TEMPERATURE IN FAHRENHEIT
  DWPT   - DEWPOINT IN FAHRENHEIT
  RH     - RELATIVE HUMIDITY IN PERCENT
  WIND   - DIRECTION AND SPEED IN MPH
  PRES   - MEAN SEA LEVEL PRESSURE IN INCHES OF HG
  WCI    - WIND CHILL INDEX
  VSB    - VISIBILITY IN MILES
  HX     - HEAT INDEX
  TC     - TEMPERATURE IN CELSIUS
  VRB    - VARIABLE WIND DIRECTION
  N/A    - NOT AVAILABLE



USA.gov is the U.S. government's official web portal to all federal, state and local government web resources and services.